SWA3959 KPSP-KOAK

Flight info

Callsign SWA3959
Flight time N/A
Altitude 38000
Route YUCCA1 PMD COREZ RGOOD EMZOH4
Aircraft B738/M-SDE2E3FGHIRWXY/LB1

Departure

Time 2026-05-05 00:09
Airport Palm Springs International Airport (KPSP)

Arrival

Time N/A
Airport San Francisco Bay Oakland International Airport (KOAK)
Time Latitude Longitude Altitude Speed Heading
2026-05-04 23:46 33.82251 -116.50621 421 ft 0 kts 324°
2026-05-04 23:53 33.82248 -116.50618 411 ft 2 kts 323°
2026-05-04 23:53 33.82235 -116.50603 421 ft 3 kts 309°
2026-05-04 23:53 33.82222 -116.50589 417 ft 3 kts 342°
2026-05-04 23:53 33.82202 -116.50581 412 ft 3 kts 339°
2026-05-04 23:54 33.82183 -116.50573 414 ft 3 kts 342°
2026-05-04 23:54 33.82165 -116.50567 412 ft 2 kts 353°
2026-05-04 23:54 33.82158 -116.50566 414 ft 0 kts 354°
2026-05-04 23:58 33.82202 -116.50566 416 ft 12 kts 12°
2026-05-04 23:59 33.82272 -116.50477 412 ft 17 kts 53°
2026-05-04 23:59 33.82296 -116.50378 418 ft 11 kts 126°
2026-05-04 23:59 33.82230 -116.50313 412 ft 15 kts 140°
2026-05-04 23:59 33.82122 -116.50218 408 ft 22 kts 143°
2026-05-05 00:00 33.82000 -116.50111 408 ft 21 kts 143°
2026-05-05 00:00 33.81960 -116.50074 413 ft 21 kts 143°
2026-05-05 00:00 33.81846 -116.49932 407 ft 7 kts 87°
2026-05-05 00:00 33.81847 -116.49919 407 ft 0 kts 82°
2026-05-05 00:01 33.81847 -116.49918 407 ft 0 kts 82°
2026-05-05 00:01 33.81847 -116.49916 407 ft 0 kts 81°
2026-05-05 00:07 33.81848 -116.49913 407 ft 1 kts 81°
2026-05-05 00:07 33.81852 -116.49864 406 ft 12 kts 82°
2026-05-05 00:08 33.81910 -116.49829 406 ft 12 kts 330°
2026-05-05 00:08 33.82027 -116.49929 408 ft 49 kts 323°
2026-05-05 00:08 33.82519 -116.50367 415 ft 124 kts 323°
2026-05-05 00:08 33.83353 -116.51107 719 ft 160 kts 321°
2026-05-05 00:09 33.84280 -116.51918 1631 ft 168 kts 317°
2026-05-05 00:09 33.85275 -116.52779 2277 ft 188 kts 326°
2026-05-05 00:09 33.86393 -116.53589 3112 ft 190 kts 326°
2026-05-05 00:09 33.87464 -116.54525 3866 ft 190 kts 319°
2026-05-05 00:10 33.88553 -116.55492 4575 ft 200 kts 318°
2026-05-05 00:10 33.89703 -116.56487 5274 ft 207 kts 321°
2026-05-05 00:10 33.91135 -116.56972 5950 ft 230 kts
2026-05-05 00:10 33.92633 -116.56169 6670 ft 248 kts 38°
2026-05-05 00:11 33.93857 -116.54657 7377 ft 256 kts 41°
2026-05-05 00:11 33.95157 -116.53135 8019 ft 265 kts 41°
2026-05-05 00:11 33.96610 -116.51694 8652 ft 274 kts 24°
2026-05-05 00:11 33.98447 -116.51238 9334 ft 273 kts 353°
2026-05-05 00:12 34.02227 -116.51574 10524 ft 286 kts 353°
2026-05-05 00:13 34.15582 -116.53958 13547 ft 356 kts 336°
2026-05-05 00:14 34.22513 -116.56864 14856 ft 387 kts 338°
2026-05-05 00:14 34.25108 -116.57897 15318 ft 397 kts 338°
2026-05-05 00:15 34.27771 -116.58945 15794 ft 406 kts 338°
2026-05-05 00:15 34.28680 -116.59302 15955 ft 408 kts 338°
2026-05-05 00:15 34.33239 -116.61094 16758 ft 419 kts 337°
2026-05-05 00:15 34.36033 -116.62194 17254 ft 424 kts 337°
2026-05-05 00:16 34.38857 -116.63308 17763 ft 430 kts 337°
2026-05-05 00:16 34.41677 -116.64420 18248 ft 434 kts 337°
2026-05-05 00:16 34.44555 -116.65561 18692 ft 436 kts 335°
2026-05-05 00:16 34.47235 -116.67172 19100 ft 426 kts 316°
2026-05-05 00:17 34.49224 -116.69735 19585 ft 413 kts 298°
2026-05-05 00:17 34.50559 -116.72771 20056 ft 405 kts 285°
2026-05-05 00:17 34.51215 -116.76047 20529 ft 397 kts 272°
2026-05-05 00:17 34.51507 -116.79374 21019 ft 396 kts 271°
2026-05-05 00:18 34.51696 -116.81578 21334 ft 396 kts 271°
2026-05-05 00:18 34.52093 -116.86028 21996 ft 396 kts 272°
2026-05-05 00:18 34.52401 -116.89345 22492 ft 396 kts 272°
2026-05-05 00:18 34.52716 -116.92667 23003 ft 396 kts 272°
2026-05-05 00:19 34.53035 -116.95994 23521 ft 397 kts 272°
2026-05-05 00:19 34.53355 -116.99325 23972 ft 398 kts 271°
2026-05-05 00:19 34.53566 -117.01534 24255 ft 398 kts 271°
2026-05-05 00:19 34.53886 -117.04871 24716 ft 398 kts 271°
2026-05-05 00:20 34.54207 -117.08210 25161 ft 398 kts 270°
2026-05-05 00:20 34.54525 -117.11546 25630 ft 397 kts 270°
2026-05-05 00:20 34.54840 -117.14869 26098 ft 397 kts 270°
2026-05-05 00:21 34.55359 -117.20388 26889 ft 395 kts 269°
2026-05-05 00:22 34.56997 -117.38070 28893 ft 399 kts 268°
2026-05-05 00:22 34.57411 -117.42566 29414 ft 399 kts 267°
2026-05-05 00:22 34.57714 -117.45872 29813 ft 399 kts 267°
2026-05-05 00:23 34.58021 -117.49224 30178 ft 399 kts 267°
2026-05-05 00:23 34.58227 -117.51481 30384 ft 399 kts 267°
2026-05-05 00:23 34.58929 -117.59212 31150 ft 397 kts 266°